Regional Weather Roundup
Issued by NWS

Home | Current Version | Previous Version | Graphics & Text | Print | Product List | Glossary Off
Versions: 1 2 3 4 5 6 7 8 9 10 11 12 13 14 15 16 17 18 19 20 21 22 23 24 25 26 27 28 29 30 31 32 33 34 35 36 37 38 39 40 41 42 43 44 45 46 47 48 49 50

000
ASUS45 KBOU 030510
RWRCO

WEATHER ROUNDUP FOR COLORADO
NATIONAL WEATHER SERVICE DENVER/BOULDER CO
1100 PM MDT THU JUL 02 2015

NOTE: "FAIR" INDICATES FEW OR NO CLOUDS BELOW 12000 FEET WITH NO
SIGNIFICANT WEATHER AND/OR OBSTRUCTIONS TO VISIBILITY.

COZ001>005-013-030-031-030600-
...NORTHWEST COLORADO...

CITY           SKY/WX    TMP DP  RH WIND       PRES   REMARKS
CRAIG          PTCLDY    75  44  33 E15       30.17S
HAYDEN         MOCLDY    70  43  37 E14       30.21S
MEEKER         CLEAR     69  45  41 NE7       30.16S
MOUNT WERNER   NOT AVBL
STEAMBOAT SPGS MOCLDY    69  41  36 N20G33    30.24R
WALDEN         MOCLDY    54  46  76 S5        30.36F
$$

COZ006>008-011-030600-
...WEST CENTRAL VALLEYS...

CITY           SKY/WX    TMP DP  RH WIND       PRES   REMARKS
GRAND JUNCTION PTCLDY    81  45  28 CALM      29.98R
MONTROSE       PTCLDY    76  49  38 E8        30.12R
EAGLE          PTCLDY    70  46  43 CALM      30.23R
RIFLE          PTCLDY    74  43  32 SE15      30.07R
DELTA          PTCLDY    79  48  33 SE9       30.05R
NUCLA          PTCLDY    73  45  35 E9        30.15R
$$

COZ017>023-064>068-030600-
...SOUTHWEST COLORADO...

CITY           SKY/WX    TMP DP  RH WIND       PRES   REMARKS
DURANGO        PTCLDY    66  50  56 E5        30.26R
CORTEZ         MOCLDY    74  53  48 S13G33    30.20R
PAGOSA SPRINGS MOCLDY    63  51  65 SW3       30.35R
TELLURIDE      MOCLDY    61  50  67 SE6       30.42F
WOLF CREEK PAS NOT AVBL
$$

COZ009-010-012-014-032>034-037-058>063-030600-
...CENTRAL COLORADO...

CITY           SKY/WX    TMP DP  RH WIND       PRES   REMARKS
ASPEN          CLEAR     59  44  57 SW12      30.30R
BUENA VISTA    PTCLDY    54  51  90 CALM      30.39R
COPPER MTN     CLEAR     54  43  66 W8        30.66S
BERTHOUD PASS  MOCLDY    43  32  65 W7        30.71R
COTTONWOOD PAS NOT AVBL
GUNNISON       PTCLDY    63  48  59 N5        30.36S
KREMMLING      PTCLDY    66  43  42 N9G16     30.34R
LEADVILLE      PTCLDY    47  46  97 E3        30.49F
MONARCH PASS   MOCLDY    46  37  71 E7        30.74S
SALIDA         PTCLDY    57  53  85 W8        30.44R
SUNLIGHT       CLEAR     59  37  44 NE3       30.56S
WILKERSON PASS CLEAR     48  39  71 SW6       30.64S
$$

COZ069>075-030600-
...SAN LUIS VALLEY/SANGRE DE CRISTO MOUNTAINS...

CITY           SKY/WX    TMP DP  RH WIND       PRES   REMARKS
ALAMOSA        CLOUDY    55  51  86 S3        30.34S
LA VETA PASS   MOCLDY    50  43  76 MISG      30.52S
SAGUACHE       MOCLDY    59  50  72 NE5       30.37S
$$

COZ035-036-038>040-030600-
...NORTHERN COLORADO FRONT RANGE...

CITY           SKY/WX    TMP DP  RH WIND       PRES   REMARKS
DENVER INTL AP MOCLDY    63  57  81 W7        30.24R
DMNS CITY PARK   N/A     62  60  91 E7        30.24S
AURORA         PTCLDY    60  60  99 W7        30.26S
FRONT RANGE AP NOT AVBL
ERIE MUNI ARPT PTCLDY    62  60  94 CALM      30.22S
BOULDER MUN AP PTCLDY    63  59  88 CALM      30.24R
CENTENNIAL     MOCLDY    61  58  90 W8        30.26F
BROOMFIELD     NOT AVBL
FORT COLLINS   MOCLDY    64  57  77 S7        30.22S
LONGMONT       MOCLDY    63  59  87 SW5       30.24R
$$

COZ041-046-047-076>085-087-088-030600-
...PIKES PEAK/PALMER DIVIDE AND SOUTHERN FOOTHILLS...

CITY           SKY/WX    TMP DP  RH WIND       PRES   REMARKS
COLO. SPRINGS  CLOUDY    62  55  77 NE16      30.29F THUNDER
A. F. ACADEMY  MOCLDY    60  53  76 N6        30.31F
ELLICOTT       TSTM     N/A N/A N/A N24G44    30.30R
FALCON         RAIN      56  55  94 SE10      30.34F
FORT CARSON    NOT AVBL
LIMON          CLOUDY    66  57  72 E6        30.21S
MONUMENT HILL  NOT AVBL
TRINIDAD       MOCLDY    65  56  72 S5        30.23R
$$

COZ042>045-048>051-090-091-030600-
...NORTHEAST COLORADO...

CITY           SKY/WX    TMP DP  RH WIND       PRES   REMARKS
GREELEY ARPT   MOCLDY    64  61  88 CALM      30.20S
AKRON          PTCLDY    65  57  75 W8        30.18R
BURLINGTON     PTCLDY    68  55  63 E3        30.14S
WRAY           CLEAR     69  58  68 CALM      30.11S
STERLING       MOCLDY    68  59  73 CALM        N/A
HOLYOKE        CLEAR     66  55  68 NE7       30.12S
FORT MORGAN    PTCLDY    63  55  75 N5        30.18S
$$

COZ086-089-092>099-030600-
...SOUTHEAST COLORADO...

CITY           SKY/WX    TMP DP  RH WIND       PRES   REMARKS
PUEBLO         MOCLDY    71  58  63 N6        30.17R
LA JUNTA       MOCLDY    71  61  70 N3        30.13R
LAMAR          PTCLDY    71  60  68 S3        30.07R
SPRINGFIELD      N/A     67  63  87 S3        30.14R
$$


USA.gov is the U.S. government's official web portal to all federal, state and local government web resources and services.